SP5MRF Weather Reports


time (UTC)temp
C
wind
direction
speed
KPH
gust
KPH
rain 1hr
cm
rain 24hr
cm
rain mn
cm
humidity
%
barometer
mb
20260505032557 10 337 0.0 0.0 0.00 0.00 0.00 68 1006.4
20260505031757 10 337 0.0 0.0 0.00 0.00 0.00 67 1006.4
20260505030957 10 337 0.0 0.0 0.00 0.00 0.00 67 1006.3
20260505030157 10 337 0.0 0.0 0.00 0.00 0.00 66 1006.3
20260505025358 10 337 0.0 0.0 0.00 0.00 0.00 66 1006.5
20260505024557 11 337 0.0 0.0 0.00 0.00 0.00 66 1006.4
20260505023757 11 337 0.0 0.0 0.00 0.00 0.00 65 1006.4
20260505022957 11 337 0.0 0.0 0.00 0.00 0.00 65 1006.4
20260505022157 11 337 0.0 0.0 0.00 0.00 0.00 65 1006.7
20260505021359 11 337 0.0 0.0 0.00 0.00 0.00 65 1006.8
20260505020557 11 337 0.0 0.0 0.00 0.00 0.00 64 1006.6
20260505015759 11 337 0.0 0.0 0.00 0.00 0.00 64 1006.5
20260505014957 11 337 0.0 0.0 0.00 0.00 0.00 63 1006.7
20260505014158 11 337 0.0 0.0 0.00 0.00 0.00 63 1006.5
20260505013357 11 337 0.0 0.0 0.00 0.00 0.00 62 1006.5
20260505012557 11 337 0.0 0.0 0.00 0.00 0.00 62 1006.4
20260505011757 11 337 0.0 0.0 0.00 0.00 0.00 62 1006.6
20260505010958 11 337 0.0 0.0 0.00 0.00 0.00 61 1006.7
20260505010158 12 337 0.0 0.0 0.00 0.00 0.00 61 1006.6
20260505005358 12 337 0.0 0.0 0.00 0.00 0.00 61 1006.5
20260505004558 12 337 0.0 0.0 0.00 0.00 0.00 61 1006.4
20260505003758 12 337 0.0 0.0 0.00 0.00 0.00 59 1006.6
20260505002958 12 337 0.0 0.0 0.00 0.00 0.00 59 1006.5
20260505002158 12 337 0.0 0.0 0.00 0.00 0.00 58 1006.7
20260505001358 12 337 0.0 0.0 0.00 0.00 0.00 58 1006.5
20260505000558 12 337 0.0 0.0 0.00 0.00 0.00 57 1006.6
20260504235758 13 337 0.0 0.0 0.00 0.00 0.00 57 1006.5
20260504234958 13 337 0.0 0.0 0.00 0.00 0.00 56 1006.7
20260504234158 13 337 0.0 0.0 0.00 0.00 0.00 56 1006.6
20260504233358 13 337 0.0 0.0 0.00 0.00 0.00 55 1006.8
20260504232558 13 337 0.0 0.0 0.00 0.00 0.00 55 1006.7
20260504231758 13 337 0.0 0.0 0.00 0.00 0.00 55 1006.8
20260504230958 14 337 0.0 0.0 0.00 0.00 0.00 54 1006.7
20260504230158 15 337 0.0 0.0 0.00 0.00 0.00 54 1006.9
20260504225358 15 337 0.0 0.0 0.00 0.00 0.00 53 1006.7
20260504224558 15 337 0.0 0.0 0.00 0.00 0.00 53 1006.8
20260504223758 15 337 0.0 0.0 0.00 0.00 0.00 52 1006.8
20260504222958 15 337 0.0 0.0 0.00 0.00 0.00 52 1006.8
20260504222158 16 337 0.0 0.0 0.00 0.00 0.00 52 1006.7
20260504221358 16 337 0.0 0.0 0.00 0.00 0.00 51 1006.8
20260504220559 16 337 0.0 0.0 0.00 0.00 0.00 51 1006.9
20260504215758 16 337 0.0 0.0 0.00 0.00 0.00 50 1006.9
20260504214958 17 337 0.0 0.0 0.00 0.00 0.00 50 1006.9
20260504214158 17 337 0.0 0.0 0.00 0.00 0.00 49 1006.9
20260504213358 17 337 0.0 0.0 0.00 0.00 0.00 50 1006.9
20260504212558 17 337 0.0 0.0 0.00 0.00 0.00 50 1006.9
20260504211758 17 337 0.0 0.0 0.00 0.00 0.00 51 1006.9
20260504210958 16 337 0.0 0.0 0.00 0.00 0.00 52 1007.1
20260504210158 16 0 0.0 0.0 0.00 0.00 0.00 52 1006.8
20260504205358 15 0 0.0 0.0 0.00 0.00 0.00 49 1006.8
20260504204558 15 0 0.0 0.0 0.00 0.00 0.00 48 1006.8
20260504203758 15 0 0.0 0.0 0.00 0.00 0.00 47 1006.8
20260504202958 16 0 0.0 0.0 0.00 0.00 0.00 47 1006.8
20260504202158 16 0 0.0 0.0 0.00 0.00 0.00 46 1006.9
20260504201358 16 0 0.0 0.0 0.00 0.00 0.00 45 1006.8
20260504200558 16 0 0.0 0.0 0.00 0.00 0.00 44 1006.7
20260504195758 17 0 0.0 0.0 0.00 0.00 0.00 44 1006.7
20260504194958 17 0 0.0 0.0 0.00 0.00 0.00 43 1006.7
20260504194158 17 0 0.0 0.0 0.00 0.00 0.00 43 1006.7
20260504193358 18 0 0.0 0.0 0.00 0.00 0.00 43 1006.6
20260504192558 18 0 0.0 0.0 0.00 0.00 0.00 42 1006.8
20260504191758 18 0 0.0 0.0 0.00 0.00 0.00 41 1006.8
20260504190958 19 0 0.0 0.0 0.00 0.00 0.00 41 1006.6
20260504190158 19 0 0.0 0.0 0.00 0.00 0.00 39 1006.7
20260504185358 20 0 0.0 0.0 0.00 0.00 0.00 40 1006.6
20260504184558 20 0 0.0 0.0 0.00 0.00 0.00 38 1006.5
20260504183758 20 0 0.0 0.0 0.00 0.00 0.00 38 1006.5
20260504182958 21 0 0.0 0.0 0.00 0.00 0.00 37 1006.6
20260504182201 21 0 0.0 0.0 0.00 0.00 0.00 36 1006.6
20260504181358 22 0 0.0 0.0 0.00 0.00 0.00 37 1006.5
20260504180558 22 0 0.0 0.0 0.00 0.00 0.00 35 1006.4
20260504175758 23 0 0.0 0.0 0.00 0.00 0.00 36 1006.4
20260504174958 23 0 0.0 0.0 0.00 0.00 0.00 34 1006.4
20260504174158 24 0 0.0 0.0 0.00 0.00 0.00 34 1006.4
20260504173358 24 337 0.0 0.0 0.00 0.00 0.00 33 1006.3
20260504172558 25 0 0.0 9.7 0.00 0.00 0.00 33 1006.3
20260504171758 25 22 0.0 4.8 0.00 0.00 0.00 33 1006.2
20260504170958 25 0 0.0 0.0 0.00 0.00 0.00 32 1006.1
20260504170158 25 337 0.0 9.7 0.00 0.00 0.00 32 1006.2
20260504151000 27 22 0.0 8.0 0.00 0.00 0.00 30 1006.4
20260504150158 27 22 4.8 9.7 0.00 0.00 0.00 30 1006.5
20260504140600 27 337 0.0 8.0 0.00 0.00 0.00 29 1006.8
20260504130158 28 337 0.0 0.0 0.00 0.00 0.00 30 1007.4
20260504110159 27 22 0.0 6.4 0.00 0.00 0.00 29 1008.2
20260504081359 22 337 0.0 3.2 0.00 0.00 0.00 36 1009.8
20260504080559 22 337 0.0 6.4 0.00 0.00 0.00 36 1009.7
20260504070159 20 0 0.0 3.2 0.00 0.00 0.00 38 1009.9
20260504050159 13 0 0.0 3.2 0.00 0.00 0.00 55 1009.8
20260504045400 13 0 0.0 0.0 0.00 0.00 0.00 56 1009.9
20260504044559 12 0 0.0 0.0 0.00 0.00 0.00 57 1009.9
20260504043759 12 0 0.0 0.0 0.00 0.00 0.00 59 1009.8
20260504043000 11 0 0.0 0.0 0.00 0.00 0.00 60 1009.8
20260504042159 10 0 0.0 0.0 0.00 0.00 0.00 61 1009.7
20260504041359 10 0 0.0 0.0 0.00 0.00 0.00 61 1009.7
20260504040559 9 0 0.0 0.0 0.00 0.00 0.00 61 1009.7
20260504035759 8 0 0.0 0.0 0.00 0.00 0.00 61 1009.8
20260504034959 8 0 0.0 0.0 0.00 0.00 0.00 61 1009.8
20260504034159 8 0 0.0 0.0 0.00 0.00 0.00 60 1009.8
20260504033401 7 0 0.0 0.0 0.00 0.00 0.00 59 1009.9